timestamp,wind_dir_avg,wind_spd_max_dir,wind_spd_avg,wind_spd_gust,battery_voltage,lat,long
2017-09-25 00:00:00+00:00,238.0,235.0,7.41,8.37,12.7,47.59359,-54.27349
2017-09-25 00:10:00+00:00,238.0,243.0,6.28,7.25,12.6,47.59359,-54.27349
2017-09-25 00:20:00+00:00,249.0,251.0,6.14,7.32,12.7,47.59359,-54.27349
2017-09-25 00:30:00+00:00,246.0,249.0,6.92,8.55,12.7,47.59359,-54.27349
2017-09-25 00:40:00+00:00,249.0,253.0,7.04,7.91,12.7,47.59359,-54.27349
2017-09-25 00:50:00+00:00,247.0,243.0,6.72,7.55,12.7,47.59359,-54.27349
2017-09-25 01:00:00+00:00,246.0,247.0,7.13,9.24,12.6,47.59359,-54.27349
2017-09-25 01:10:00+00:00,251.0,252.0,6.55,7.62,12.6,47.59359,-54.27349
2017-09-25 01:20:00+00:00,256.0,265.0,5.28,6.3,12.7,47.59359,-54.27349
2017-09-25 01:30:00+00:00,261.0,259.0,7.58,8.49,12.7,47.59359,-54.27349
2017-09-25 01:40:00+00:00,265.0,267.0,6.62,7.44,12.7,47.59359,-54.27349
2017-09-25 01:50:00+00:00,273.0,277.0,5.27,6.01,12.7,47.59359,-54.27349
2017-09-25 02:00:00+00:00,270.0,268.0,7.03,7.56,12.6,47.59359,-54.27349
2017-09-25 02:10:00+00:00,270.0,273.0,6.43,7.22,12.6,47.59359,-54.27349
2017-09-25 02:20:00+00:00,266.0,264.0,7.42,8.23,12.7,47.59359,-54.27349
2017-09-25 02:30:00+00:00,261.0,258.0,7.07,8.34,12.7,47.59359,-54.27349
2017-09-25 02:40:00+00:00,265.0,267.0,6.86,7.46,12.7,47.59359,-54.27349
2017-09-25 02:50:00+00:00,256.0,258.0,7.9,8.47,12.7,47.59359,-54.27349
2017-09-25 03:00:00+00:00,263.0,266.0,7.92,8.86,12.6,47.59359,-54.27349
2017-09-25 03:10:00+00:00,263.0,263.0,7.72,8.78,12.6,47.59359,-54.27349
2017-09-25 03:20:00+00:00,259.0,259.0,7.64,8.63,12.6,47.59359,-54.27349
2017-09-25 03:30:00+00:00,257.0,257.0,7.84,8.8,12.6,47.59359,-54.27349
2017-09-25 03:40:00+00:00,257.0,259.0,8.4,9.24,12.7,47.59359,-54.27349
2017-09-25 03:50:00+00:00,256.0,256.0,8.33,9.41,12.7,47.59359,-54.27349
2017-09-25 04:00:00+00:00,264.0,270.0,7.98,9.67,12.6,47.59359,-54.27349
2017-09-25 04:10:00+00:00,265.0,264.0,7.75,9.37,12.6,47.59359,-54.27349
2017-09-25 04:20:00+00:00,266.0,267.0,7.2,8.35,12.6,47.59359,-54.27349
2017-09-25 04:30:00+00:00,263.0,260.0,6.87,7.71,12.6,47.59359,-54.27349
2017-09-25 04:40:00+00:00,263.0,269.0,5.9,6.53,12.6,47.59359,-54.27349
2017-09-25 04:50:00+00:00,272.0,271.0,6.08,7.26,12.6,47.59359,-54.27349
2017-09-25 05:00:00+00:00,282.0,281.0,5.3,5.81,12.6,47.59359,-54.27349
2017-09-25 05:10:00+00:00,279.0,281.0,5.31,6.01,12.6,47.59359,-54.27349
2017-09-25 05:20:00+00:00,286.0,286.0,5.32,6.3,12.6,47.59359,-54.27349
2017-09-25 05:30:00+00:00,295.0,295.0,5.01,5.63,12.6,47.59359,-54.27349
2017-09-25 05:40:00+00:00,292.0,296.0,4.95,5.88,12.6,47.59359,-54.27349
2017-09-25 05:50:00+00:00,303.0,302.0,5.87,6.9,12.6,47.59359,-54.27349
2017-09-25 06:00:00+00:00,315.0,317.0,5.93,6.52,12.6,47.59359,-54.27349
2017-09-25 06:10:00+00:00,320.0,318.0,4.91,5.88,12.6,47.59359,-54.27349
2017-09-25 06:20:00+00:00,321.0,333.0,5.08,6.59,12.6,47.59359,-54.27349
2017-09-25 06:30:00+00:00,323.0,326.0,3.88,4.3,12.6,47.59359,-54.27349
2017-09-25 06:40:00+00:00,334.0,327.0,3.62,4.02,12.6,47.59359,-54.27349
2017-09-25 06:50:00+00:00,311.0,307.0,4.05,5.14,12.6,47.59359,-54.27349
2017-09-25 07:00:00+00:00,313.0,311.0,3.78,4.57,12.6,47.59359,-54.27349
2017-09-25 07:10:00+00:00,330.0,325.0,4.04,4.6,12.5,47.59359,-54.27349
2017-09-25 07:20:00+00:00,327.0,322.0,3.6,4.04,12.6,47.59359,-54.27349
2017-09-25 07:30:00+00:00,323.0,321.0,3.06,3.86,12.6,47.59359,-54.27349
2017-09-25 07:40:00+00:00,316.0,309.0,3.39,3.95,12.6,47.59359,-54.27349
2017-09-25 07:50:00+00:00,309.0,310.0,2.86,3.41,12.6,47.59359,-54.27349
2017-09-25 08:00:00+00:00,319.0,320.0,3.23,3.86,12.6,47.59359,-54.27349
2017-09-25 08:10:00+00:00,305.0,305.0,3.79,4.62,12.5,47.59359,-54.27349
2017-09-25 08:20:00+00:00,324.0,326.0,2.71,3.19,12.6,47.59359,-54.27349
2017-09-25 08:30:00+00:00,307.0,307.0,3.06,3.76,12.6,47.59359,-54.27349
2017-09-25 08:40:00+00:00,305.0,309.0,3.0,3.71,12.6,47.59359,-54.27349
2017-09-25 08:50:00+00:00,295.0,301.0,2.28,2.62,12.6,47.59359,-54.27349
2017-09-25 09:00:00+00:00,302.0,300.0,2.97,3.21,12.6,47.59359,-54.27349
2017-09-25 09:10:00+00:00,307.0,309.0,2.01,2.39,12.5,47.59359,-54.27349
2017-09-25 09:20:00+00:00,308.0,311.0,1.71,2.0,12.6,47.59359,-54.27349
2017-09-25 09:30:00+00:00,325.0,327.0,2.19,2.52,12.6,47.59359,-54.27349
2017-09-25 09:40:00+00:00,282.0,280.0,2.21,2.73,12.6,47.59359,-54.27349
2017-09-25 09:50:00+00:00,303.0,310.0,1.99,2.3,12.6,47.59359,-54.27349
2017-09-25 10:00:00+00:00,257.0,252.0,1.67,2.07,12.6,47.59359,-54.27349
2017-09-25 10:10:00+00:00,259.0,260.0,1.92,2.11,12.6,47.59359,-54.27349
2017-09-25 10:20:00+00:00,350.0,348.0,1.03,1.25,12.7,47.59359,-54.27349
2017-09-25 10:30:00+00:00,327.0,334.0,0.73,0.87,12.9,47.59359,-54.27349
2017-09-25 10:40:00+00:00,282.0,272.0,1.53,1.73,13.0,47.59359,-54.27349
2017-09-25 10:50:00+00:00,281.0,283.0,2.15,2.61,13.0,47.59359,-54.27349
2017-09-25 11:00:00+00:00,285.0,296.0,1.89,2.83,13.0,47.59359,-54.27349
2017-09-25 11:10:00+00:00,314.0,313.0,1.81,2.16,12.9,47.59359,-54.27349
2017-09-25 11:20:00+00:00,298.0,294.0,1.74,2.07,13.0,47.59359,-54.27349
2017-09-25 11:30:00+00:00,285.0,294.0,1.56,2.04,13.3,47.59359,-54.27349
2017-09-25 11:40:00+00:00,289.0,295.0,1.54,2.16,13.4,47.59359,-54.27349
2017-09-25 11:50:00+00:00,266.0,265.0,1.95,2.26,13.6,47.59359,-54.27349
2017-09-25 12:00:00+00:00,295.0,289.0,1.98,2.28,13.7,47.59359,-54.27349
2017-09-25 12:10:00+00:00,283.0,292.0,1.96,2.41,14.0,47.59359,-54.27349
2017-09-25 12:20:00+00:00,266.0,266.0,2.32,2.76,13.7,47.59359,-54.27349
2017-09-25 12:30:00+00:00,262.0,250.0,1.92,2.37,13.7,47.59359,-54.27349
2017-09-25 12:40:00+00:00,258.0,269.0,1.75,2.51,13.9,47.59359,-54.27349
2017-09-25 12:50:00+00:00,274.0,268.0,1.95,2.89,14.0,47.59359,-54.27349
2017-09-25 13:00:00+00:00,340.0,346.0,3.52,4.26,13.8,47.59359,-54.27349
2017-09-25 13:10:00+00:00,343.0,339.0,4.77,5.18,13.8,47.59359,-54.27349
2017-09-25 13:20:00+00:00,346.0,348.0,5.33,6.14,13.7,47.59359,-54.27349
2017-09-25 13:30:00+00:00,323.0,325.0,3.87,4.64,13.8,47.59359,-54.27349
2017-09-25 13:40:00+00:00,337.0,338.0,3.72,4.16,13.8,47.59359,-54.27349
2017-09-25 13:50:00+00:00,330.0,334.0,4.13,4.57,14.0,47.59359,-54.27349
2017-09-25 14:00:00+00:00,339.0,341.0,4.17,4.64,13.9,47.59359,-54.27349
2017-09-25 14:10:00+00:00,331.0,327.0,3.7,4.42,13.9,47.59359,-54.27349
2017-09-25 14:20:00+00:00,350.0,347.0,5.75,6.96,13.9,47.59359,-54.27349
2017-09-25 14:30:00+00:00,339.0,339.0,5.02,5.67,13.9,47.59359,-54.27349
2017-09-25 14:40:00+00:00,340.0,339.0,4.17,4.77,13.8,47.59359,-54.27349
2017-09-25 14:50:00+00:00,318.0,311.0,2.06,2.94,13.7,47.59359,-54.27349
2017-09-25 15:00:00+00:00,341.0,339.0,2.4,2.68,13.8,47.59359,-54.27349
2017-09-25 15:10:00+00:00,343.0,334.0,2.91,3.42,14.1,47.59359,-54.27349
2017-09-25 15:20:00+00:00,322.0,324.0,1.87,2.24,14.0,47.59359,-54.27349
2017-09-25 15:30:00+00:00,306.0,310.0,3.26,4.03,13.8,47.59359,-54.27349
2017-09-25 15:40:00+00:00,325.0,349.0,3.26,4.5,13.9,47.59359,-54.27349
2017-09-25 15:50:00+00:00,335.0,334.0,4.98,5.51,14.3,47.59359,-54.27349
2017-09-25 16:00:00+00:00,343.0,346.0,4.36,4.79,13.8,47.59359,-54.27349
2017-09-25 16:10:00+00:00,336.0,331.0,3.31,3.77,13.9,47.59359,-54.27349
2017-09-25 16:20:00+00:00,354.0,355.0,3.98,4.32,13.9,47.59359,-54.27349
2017-09-25 16:30:00+00:00,8.0,10.0,4.0,4.54,13.8,47.59359,-54.27349
2017-09-25 16:40:00+00:00,161.0,176.0,2.34,3.0,13.7,47.59359,-54.27349
2017-09-25 16:50:00+00:00,135.0,137.0,2.99,4.43,13.6,47.59359,-54.27349
2017-09-25 17:00:00+00:00,159.0,146.0,1.62,3.12,13.8,47.59359,-54.27349
2017-09-25 17:10:00+00:00,192.0,195.0,1.98,2.81,13.6,47.59359,-54.27349
2017-09-25 17:20:00+00:00,180.0,185.0,1.32,2.2,13.6,47.59359,-54.27349
2017-09-25 17:30:00+00:00,240.0,235.0,1.15,1.92,13.8,47.59359,-54.27349
2017-09-25 17:40:00+00:00,14.0,14.0,3.6,4.01,13.8,47.59359,-54.27349
2017-09-25 17:50:00+00:00,14.0,13.0,3.22,3.56,13.7,47.59359,-54.27349
2017-09-25 18:00:00+00:00,11.0,10.0,3.17,3.41,13.7,47.59359,-54.27349
2017-09-25 18:10:00+00:00,358.0,3.0,2.61,2.97,13.7,47.59359,-54.27349
2017-09-25 18:20:00+00:00,357.0,354.0,4.31,5.31,13.8,47.59359,-54.27349
2017-09-25 18:30:00+00:00,13.0,26.0,3.06,3.82,13.8,47.59359,-54.27349
2017-09-25 18:40:00+00:00,340.0,343.0,5.01,6.18,13.7,47.59359,-54.27349
2017-09-25 18:50:00+00:00,325.0,326.0,4.92,5.22,13.7,47.59359,-54.27349
2017-09-25 19:00:00+00:00,338.0,347.0,4.83,5.44,13.6,47.59359,-54.27349
2017-09-25 19:10:00+00:00,334.0,329.0,2.96,3.69,14.0,47.59359,-54.27349
2017-09-25 19:20:00+00:00,0.0,10.0,3.07,3.48,14.2,47.59359,-54.27349
2017-09-25 19:30:00+00:00,37.0,31.0,2.21,3.01,13.8,47.59359,-54.27349
2017-09-25 19:40:00+00:00,8.0,358.0,3.49,3.99,13.9,47.59359,-54.27349
2017-09-25 19:50:00+00:00,14.0,12.0,3.98,4.62,14.2,47.59359,-54.27349
2017-09-25 20:00:00+00:00,0.0,2.0,5.28,5.61,13.8,47.59359,-54.27349
2017-09-25 20:10:00+00:00,359.0,2.0,4.62,5.0,13.8,47.59359,-54.27349
2017-09-25 20:20:00+00:00,6.0,7.0,5.55,6.66,13.8,47.59359,-54.27349
2017-09-25 20:30:00+00:00,6.0,4.0,6.18,6.95,13.8,47.59359,-54.27349
2017-09-25 20:40:00+00:00,3.0,4.0,5.05,5.47,13.8,47.59359,-54.27349
2017-09-25 20:50:00+00:00,0.0,0.0,5.33,5.9,13.7,47.59359,-54.27349
2017-09-25 21:00:00+00:00,358.0,1.0,5.58,6.15,13.5,47.59359,-54.27349
2017-09-25 21:10:00+00:00,0.0,359.0,4.98,5.37,13.4,47.59359,-54.27349
2017-09-25 21:20:00+00:00,2.0,3.0,5.36,6.0,13.3,47.59359,-54.27349
2017-09-25 21:30:00+00:00,4.0,5.0,4.59,4.95,13.2,47.59359,-54.27349
2017-09-25 21:40:00+00:00,2.0,0.0,4.45,4.95,13.2,47.59359,-54.27349
2017-09-25 21:50:00+00:00,359.0,359.0,4.43,4.77,13.1,47.59359,-54.27349
2017-09-25 22:00:00+00:00,0.0,358.0,4.07,4.74,13.0,47.59359,-54.27349
2017-09-25 22:10:00+00:00,48.0,59.0,4.15,4.66,12.9,47.59359,-54.27349
2017-09-25 22:20:00+00:00,82.0,85.0,5.13,6.1,12.9,47.59359,-54.27349
2017-09-25 22:30:00+00:00,81.0,83.0,6.86,7.52,12.8,47.59359,-54.27349
2017-09-25 22:40:00+00:00,84.0,82.0,6.15,6.98,12.8,47.59359,-54.27349
2017-09-25 22:50:00+00:00,77.0,77.0,5.28,5.98,12.8,47.59359,-54.27349
2017-09-25 23:00:00+00:00,74.0,79.0,5.01,5.62,12.7,47.59359,-54.27349
2017-09-25 23:10:00+00:00,88.0,87.0,4.2,5.23,12.6,47.59359,-54.27349
2017-09-25 23:20:00+00:00,90.0,93.0,3.54,5.48,12.7,47.59359,-54.27349
2017-09-25 23:30:00+00:00,98.0,107.0,3.27,4.67,12.7,47.59359,-54.27349
2017-09-25 23:40:00+00:00,85.0,81.0,3.85,5.26,12.7,47.59359,-54.27349
2017-09-25 23:50:00+00:00,91.0,88.0,3.81,5.45,12.7,47.59359,-54.27349
